User: anonymous   Login
Location: Bangkok
(13.7500°N, 100.5170°E)
Time: 19:15:20
(UTC+07:00)
Language:

Cosmos 1802 Rocket - Orbit

View from above orbital plane
View from above orbital plane
View from above satellite
View from above satellite

Ground track
Ground track

The orbit data is extracted from the following two-line orbital elements,

1 17160U 86093B   16146.68049968  .00000018  00000-0  23220-5 0  9992
2 17160  82.9272 351.7744 0039689 146.9317 278.5531 13.74575640479636
Epoch (UTC): 25 May 2016 16:19:55
Eccentricity: 0.0039689
inclination: 82.9272°
perigee height: 954 km
apogee height: 1012 km
right ascension of ascending node: 351.7744°
argument of perigee: 146.9317°
revolutions per day: 13.74575640
mean anomaly at epoch: 278.5531°
orbit number at epoch: 47963

The dashed part of the orbit path shows where the satellite is in the earth's shadow,  

DLR